Time,TemperatureF,DewpointF,PressureIn,WindDirection,WindDirectionDegrees,WindSpeedMPH,WindSpeedGustMPH,Humidity,HourlyPrecipIn,Conditions,Clouds,dailyrainin,SoftwareType,DateUTC
2013-03-03 00:02:00,45.3,28.2,30.21,North,0,0.0,0.0,51,0.00,,,0.00,WUHU216HW,2013-03-03 06:02:00,
2013-03-03 00:07:00,45.6,28.1,30.20,North,0,0.0,0.0,50,0.00,,,0.00,WUHU216HW,2013-03-03 06:07:00,
2013-03-03 00:12:00,45.6,28.1,30.21,North,0,0.0,0.0,50,0.00,,,0.00,WUHU216HW,2013-03-03 06:12:00,
2013-03-03 00:17:00,45.5,27.9,30.20,North,0,0.0,0.0,50,0.00,,,0.00,WUHU216HW,2013-03-03 06:17:00,
2013-03-03 00:22:00,45.3,27.7,30.20,North,0,0.0,0.0,51,0.00,,,0.00,WUHU216HW,2013-03-03 06:22:00,
2013-03-03 00:28:00,44.9,27.4,30.19,North,0,0.0,0.0,50,0.00,,,0.00,WUHU216HW,2013-03-03 06:28:00,
2013-03-03 00:33:00,44.9,27.4,30.19,North,0,0.0,0.0,50,0.00,,,0.00,WUHU216HW,2013-03-03 06:33:00,
2013-03-03 00:38:00,44.9,27.4,30.20,North,0,0.0,0.0,50,0.00,,,0.00,WUHU216HW,2013-03-03 06:38:00,
2013-03-03 00:43:00,44.9,27.4,30.20,North,0,0.0,0.0,50,0.00,,,0.00,WUHU216HW,2013-03-03 06:43:00,
2013-03-03 00:48:00,44.9,27.4,30.20,North,0,0.0,0.0,50,0.00,,,0.00,WUHU216HW,2013-03-03 06:48:00,
2013-03-03 00:53:00,44.9,27.4,30.20,North,0,0.0,0.0,50,0.00,,,0.00,WUHU216HW,2013-03-03 06:53:00,
2013-03-03 00:58:00,45.1,27.0,30.19,North,0,0.0,0.0,49,0.00,,,0.00,WUHU216HW,2013-03-03 06:58:00,
2013-03-03 01:03:00,45.1,27.0,30.19,North,0,0.0,0.0,49,0.00,,,0.00,WUHU216HW,2013-03-03 07:03:00,
2013-03-03 01:08:00,45.1,27.0,30.19,North,0,0.0,0.0,49,0.00,,,0.00,WUHU216HW,2013-03-03 07:08:00,
2013-03-03 01:13:00,45.1,27.0,30.19,North,0,0.0,0.0,49,0.00,,,0.00,WUHU216HW,2013-03-03 07:13:00,
2013-03-03 01:18:00,45.1,27.0,30.19,North,0,0.0,0.0,48,0.00,,,0.00,WUHU216HW,2013-03-03 07:18:00,
2013-03-03 01:23:00,44.9,26.9,30.19,North,0,0.0,0.0,49,0.00,,,0.00,WUHU216HW,2013-03-03 07:23:00,
2013-03-03 01:28:00,44.9,26.9,30.19,North,0,0.0,0.0,48,0.00,,,0.00,WUHU216HW,2013-03-03 07:28:00,
2013-03-03 01:33:00,44.9,26.9,30.19,North,0,0.0,0.0,48,0.00,,,0.00,WUHU216HW,2013-03-03 07:33:00,
2013-03-03 01:42:00,44.9,26.3,30.20,North,0,0.0,0.0,48,0.00,,,0.00,WUHU216HW,2013-03-03 07:42:00,
2013-03-03 01:47:00,44.7,26.2,30.19,North,0,0.0,0.0,48,0.00,,,0.00,WUHU216HW,2013-03-03 07:47:00,
2013-03-03 01:52:00,44.7,26.2,30.20,North,0,0.0,0.0,48,0.00,,,0.00,WUHU216HW,2013-03-03 07:52:00,
2013-03-03 01:57:00,44.4,25.9,30.19,North,0,0.0,0.0,48,0.00,,,0.00,WUHU216HW,2013-03-03 07:57:00,
2013-03-03 02:02:00,44.4,25.9,30.19,North,0,0.0,0.0,48,0.00,,,0.00,WUHU216HW,2013-03-03 08:02:00,
2013-03-03 02:07:00,44.4,25.9,30.19,North,0,0.0,0.0,48,0.00,,,0.00,WUHU216HW,2013-03-03 08:07:00,
2013-03-03 02:12:00,44.2,25.7,30.19,North,0,0.0,0.0,48,0.00,,,0.00,WUHU216HW,2013-03-03 08:12:00,
2013-03-03 02:17:00,44.2,25.7,30.18,North,0,0.0,0.0,48,0.00,,,0.00,WUHU216HW,2013-03-03 08:17:00,
2013-03-03 02:22:00,44.2,25.7,30.18,North,0,0.0,0.0,48,0.00,,,0.00,WUHU216HW,2013-03-03 08:22:00,
2013-03-03 02:27:00,44.2,25.7,30.18,North,0,0.0,0.0,48,0.00,,,0.00,WUHU216HW,2013-03-03 08:27:00,
2013-03-03 02:32:00,44.2,25.7,30.18,North,0,0.0,0.0,48,0.00,,,0.00,WUHU216HW,2013-03-03 08:32:00,
2013-03-03 02:37:00,44.2,25.7,30.18,North,0,0.0,0.0,48,0.00,,,0.00,WUHU216HW,2013-03-03 08:37:00,
2013-03-03 02:42:00,43.8,25.9,30.18,North,0,0.0,0.0,49,0.00,,,0.00,WUHU216HW,2013-03-03 08:42:00,
2013-03-03 02:47:00,43.5,25.6,30.18,North,0,0.0,0.0,49,0.00,,,0.00,WUHU216HW,2013-03-03 08:47:00,
2013-03-03 02:52:00,43.7,26.3,30.17,North,0,0.0,0.0,50,0.00,,,0.00,WUHU216HW,2013-03-03 08:52:00,
2013-03-03 02:57:00,44.2,26.2,30.17,North,0,0.0,0.0,49,0.00,,,0.00,WUHU216HW,2013-03-03 08:57:00,
2013-03-03 03:02:00,44.2,26.2,30.16,North,0,0.0,0.0,49,0.00,,,0.00,WUHU216HW,2013-03-03 09:02:00,
2013-03-03 03:07:00,44.2,26.2,30.17,North,0,0.0,0.0,49,0.00,,,0.00,WUHU216HW,2013-03-03 09:07:00,
2013-03-03 03:12:00,44.2,26.2,30.17,North,0,0.0,0.0,49,0.00,,,0.00,WUHU216HW,2013-03-03 09:12:00,
2013-03-03 03:17:00,44.2,26.2,30.17,North,0,0.0,0.0,49,0.00,,,0.00,WUHU216HW,2013-03-03 09:17:00,
2013-03-03 03:22:00,44.2,26.2,30.16,North,0,0.0,0.0,49,0.00,,,0.00,WUHU216HW,2013-03-03 09:22:00,
2013-03-03 03:27:00,44.2,26.2,30.16,North,0,0.0,0.0,48,0.00,,,0.00,WUHU216HW,2013-03-03 09:27:00,
2013-03-03 03:32:00,44.4,25.9,30.16,North,0,0.0,0.0,47,0.00,,,0.00,WUHU216HW,2013-03-03 09:32:00,
2013-03-03 03:37:00,44.4,25.9,30.16,North,0,0.0,0.0,47,0.00,,,0.00,WUHU216HW,2013-03-03 09:37:00,
2013-03-03 03:42:00,44.4,25.9,30.16,North,0,0.0,0.0,47,0.00,,,0.00,WUHU216HW,2013-03-03 09:42:00,
2013-03-03 04:16:00,43.8,24.8,30.16,North,0,0.0,0.0,47,0.00,,,0.00,WUHU216HW,2013-03-03 10:16:00,
2013-03-03 04:21:00,43.8,24.8,30.16,North,0,0.0,0.0,47,0.00,,,0.00,WUHU216HW,2013-03-03 10:21:00,
2013-03-03 04:26:00,43.8,24.8,30.16,North,0,0.0,0.0,47,0.00,,,0.00,WUHU216HW,2013-03-03 10:26:00,
2013-03-03 04:31:00,43.8,24.8,30.16,North,0,0.0,0.0,47,0.00,,,0.00,WUHU216HW,2013-03-03 10:31:00,
2013-03-03 04:36:00,43.5,24.5,30.16,North,0,0.0,0.0,47,0.00,,,0.00,WUHU216HW,2013-03-03 10:36:00,
2013-03-03 04:41:00,43.3,24.3,30.16,North,0,0.0,0.0,47,0.00,,,0.00,WUHU216HW,2013-03-03 10:41:00,
2013-03-03 04:46:00,43.3,24.3,30.16,North,0,0.0,0.0,47,0.00,,,0.00,WUHU216HW,2013-03-03 10:46:00,
2013-03-03 04:51:00,42.9,24.0,30.16,North,0,0.0,0.0,48,0.00,,,0.00,WUHU216HW,2013-03-03 10:51:00,
2013-03-03 04:56:00,42.9,24.0,30.16,North,0,0.0,0.0,48,0.00,,,0.00,WUHU216HW,2013-03-03 10:56:00,
2013-03-03 05:01:00,42.8,24.4,30.16,North,0,0.0,0.0,48,0.00,,,0.00,WUHU216HW,2013-03-03 11:01:00,
2013-03-03 05:06:00,42.9,24.6,30.16,North,0,0.0,0.0,48,0.00,,,0.00,WUHU216HW,2013-03-03 11:06:00,
2013-03-03 05:11:00,43.3,24.9,30.16,North,0,0.0,0.0,48,0.00,,,0.00,WUHU216HW,2013-03-03 11:11:00,
2013-03-03 05:16:00,43.3,24.9,30.16,North,0,0.0,0.0,48,0.00,,,0.00,WUHU216HW,2013-03-03 11:16:00,
2013-03-03 05:21:00,42.9,24.6,30.16,North,0,0.0,0.0,47,0.00,,,0.00,WUHU216HW,2013-03-03 11:21:00,
2013-03-03 05:26:00,43.1,24.2,30.16,North,0,0.0,0.0,47,0.00,,,0.00,WUHU216HW,2013-03-03 11:26:00,
2013-03-03 05:31:00,43.3,23.8,30.16,North,0,0.0,0.0,46,0.00,,,0.00,WUHU216HW,2013-03-03 11:31:00,
2013-03-03 05:36:00,43.5,24.0,30.16,North,0,0.0,0.0,46,0.00,,,0.00,WUHU216HW,2013-03-03 11:36:00,
2013-03-03 05:41:00,43.5,24.0,30.16,North,0,0.0,0.0,46,0.00,,,0.00,WUHU216HW,2013-03-03 11:41:00,
2013-03-03 05:46:00,43.5,24.0,30.16,North,0,0.0,0.0,47,0.00,,,0.00,WUHU216HW,2013-03-03 11:46:00,
2013-03-03 05:51:00,43.3,24.3,30.16,North,0,0.0,0.0,47,0.00,,,0.00,WUHU216HW,2013-03-03 11:51:00,
2013-03-03 05:56:00,43.1,24.2,30.16,North,0,0.0,0.0,47,0.00,,,0.00,WUHU216HW,2013-03-03 11:56:00,
2013-03-03 06:01:00,42.9,24.6,30.16,North,0,0.0,0.0,48,0.00,,,0.00,WUHU216HW,2013-03-03 12:01:00,
2013-03-03 06:06:00,42.9,24.6,30.16,North,0,0.0,0.0,48,0.00,,,0.00,WUHU216HW,2013-03-03 12:06:00,
2013-03-03 06:11:00,42.8,24.4,30.16,North,0,0.0,0.0,48,0.00,,,0.00,WUHU216HW,2013-03-03 12:11:00,
2013-03-03 06:16:00,42.6,24.2,30.16,North,0,0.0,0.0,49,0.00,,,0.00,WUHU216HW,2013-03-03 12:16:00,
2013-03-03 06:21:00,42.6,24.2,30.16,North,0,0.0,0.0,49,0.00,,,0.00,WUHU216HW,2013-03-03 12:21:00,
2013-03-03 06:26:00,42.6,24.2,30.16,North,0,0.0,0.0,49,0.00,,,0.00,WUHU216HW,2013-03-03 12:26:00,
2013-03-03 06:31:00,42.6,24.2,30.16,North,0,0.0,0.0,49,0.00,,,0.00,WUHU216HW,2013-03-03 12:31:00,
2013-03-03 06:36:00,42.6,24.8,30.16,North,0,0.0,0.0,49,0.00,,,0.00,WUHU216HW,2013-03-03 12:36:00,
2013-03-03 06:41:00,42.4,24.6,30.16,North,0,0.0,0.0,49,0.00,,,0.00,WUHU216HW,2013-03-03 12:41:00,
2013-03-03 06:46:00,42.4,24.6,30.16,North,0,0.0,0.0,49,0.00,,,0.00,WUHU216HW,2013-03-03 12:46:00,
2013-03-03 06:51:00,42.4,24.6,30.16,North,0,0.0,0.0,49,0.00,,,0.00,WUHU216HW,2013-03-03 12:51:00,
2013-03-03 06:56:00,42.4,24.6,30.16,North,0,0.0,0.0,49,0.00,,,0.00,WUHU216HW,2013-03-03 12:56:00,
2013-03-03 07:01:00,42.4,24.6,30.16,North,0,0.0,0.0,49,0.00,,,0.00,WUHU216HW,2013-03-03 13:01:00,
2013-03-03 07:06:00,42.4,24.6,30.16,North,0,0.0,0.0,49,0.00,,,0.00,WUHU216HW,2013-03-03 13:06:00,
2013-03-03 07:11:00,42.6,24.8,30.16,North,0,0.0,0.0,49,0.00,,,0.00,WUHU216HW,2013-03-03 13:11:00,
2013-03-03 07:16:00,42.6,24.8,30.16,North,0,0.0,0.0,49,0.00,,,0.00,WUHU216HW,2013-03-03 13:16:00,
2013-03-03 07:21:00,42.4,24.6,30.16,North,0,0.0,0.0,49,0.00,,,0.00,WUHU216HW,2013-03-03 13:21:00,
2013-03-03 07:26:00,42.6,24.8,30.16,North,0,0.0,0.0,49,0.00,,,0.00,WUHU216HW,2013-03-03 13:26:00,
2013-03-03 07:31:00,43.1,24.7,30.16,North,0,0.0,0.0,48,0.00,,,0.00,WUHU216HW,2013-03-03 13:31:00,
2013-03-03 07:36:00,43.7,25.2,30.17,North,0,0.0,0.0,48,0.00,,,0.00,WUHU216HW,2013-03-03 13:36:00,
2013-03-03 07:41:00,44.2,25.1,30.16,North,0,0.0,0.0,47,0.00,,,0.00,WUHU216HW,2013-03-03 13:41:00,
2013-03-03 07:46:00,44.4,25.3,30.16,North,0,0.0,0.0,47,0.00,,,0.00,WUHU216HW,2013-03-03 13:46:00,
2013-03-03 07:51:00,44.9,25.3,30.16,North,0,0.0,0.0,46,0.00,,,0.00,WUHU216HW,2013-03-03 13:51:00,
2013-03-03 07:56:00,45.8,25.5,30.16,North,0,0.0,0.0,45,0.00,,,0.00,WUHU216HW,2013-03-03 13:56:00,
2013-03-03 08:01:00,46.2,25.9,30.16,North,0,0.0,0.0,45,0.00,,,0.00,WUHU216HW,2013-03-03 14:01:00,
2013-03-03 08:06:00,46.9,26.5,30.16,North,0,0.0,0.0,45,0.00,,,0.00,WUHU216HW,2013-03-03 14:06:00,
2013-03-03 08:11:00,47.4,26.4,30.16,North,0,0.0,0.0,44,0.00,,,0.00,WUHU216HW,2013-03-03 14:11:00,
2013-03-03 08:16:00,48.0,26.9,30.15,North,0,0.0,0.0,44,0.00,,,0.00,WUHU216HW,2013-03-03 14:16:00,
2013-03-03 08:21:00,48.5,27.4,30.15,North,0,0.0,0.0,44,0.00,,,0.00,WUHU216HW,2013-03-03 14:21:00,
2013-03-03 08:26:00,48.9,28.3,30.16,North,0,0.0,0.0,45,0.00,,,0.00,WUHU216HW,2013-03-03 14:26:00,
2013-03-03 08:31:00,48.9,28.3,30.16,North,0,0.0,0.0,45,0.00,,,0.00,WUHU216HW,2013-03-03 14:31:00,
2013-03-03 08:36:00,49.8,29.7,30.16,North,0,0.0,0.0,46,0.00,,,0.00,WUHU216HW,2013-03-03 14:36:00,
2013-03-03 08:41:00,50.5,30.9,30.16,North,0,0.0,0.0,47,0.00,,,0.00,WUHU216HW,2013-03-03 14:41:00,
2013-03-03 08:46:00,51.0,30.9,30.16,North,0,0.0,0.0,46,0.00,,,0.00,WUHU216HW,2013-03-03 14:46:00,
2013-03-03 08:51:00,51.4,31.2,30.16,North,0,0.0,0.0,46,0.00,,,0.00,WUHU216HW,2013-03-03 14:51:00,
2013-03-03 08:56:00,52.3,32.0,30.15,North,0,0.0,0.0,46,0.00,,,0.00,WUHU216HW,2013-03-03 14:56:00,
2013-03-03 09:02:00,52.7,31.8,30.15,North,0,0.0,0.0,45,0.00,,,0.00,WUHU216HW,2013-03-03 15:02:00,
2013-03-03 09:07:00,53.2,32.3,30.15,North,0,0.0,0.0,45,0.00,,,0.00,WUHU216HW,2013-03-03 15:07:00,
2013-03-03 09:12:00,54.1,32.0,30.15,North,0,0.0,0.0,43,0.00,,,0.00,WUHU216HW,2013-03-03 15:12:00,
2013-03-03 09:17:00,54.6,31.9,30.15,North,0,0.0,0.0,42,0.00,,,0.00,WUHU216HW,2013-03-03 15:17:00,
2013-03-03 09:22:00,55.0,32.2,30.15,North,0,0.0,0.0,42,0.00,,,0.00,WUHU216HW,2013-03-03 15:22:00,
2013-03-03 09:27:00,56.1,32.1,30.15,North,0,0.0,0.0,40,0.00,,,0.00,WUHU216HW,2013-03-03 15:27:00,
2013-03-03 09:32:00,56.1,32.1,30.15,North,0,0.0,0.0,41,0.00,,,0.00,WUHU216HW,2013-03-03 15:32:00,
2013-03-03 09:37:00,56.3,32.2,30.15,North,0,0.0,0.0,40,0.00,,,0.00,WUHU216HW,2013-03-03 15:37:00,
2013-03-03 09:42:00,57.3,33.2,30.15,North,0,0.0,0.0,40,0.00,,,0.00,WUHU216HW,2013-03-03 15:42:00,
2013-03-03 09:47:00,57.7,33.5,30.15,North,0,0.0,0.0,40,0.00,,,0.00,WUHU216HW,2013-03-03 15:47:00,
2013-03-03 09:52:00,58.2,33.3,30.15,North,0,0.0,0.0,39,0.00,,,0.00,WUHU216HW,2013-03-03 15:52:00,
2013-03-03 09:57:00,59.0,33.2,30.14,North,0,0.0,0.0,38,0.00,,,0.00,WUHU216HW,2013-03-03 15:57:00,
2013-03-03 10:02:00,59.9,33.3,30.15,North,0,0.0,0.0,37,0.00,,,0.00,WUHU216HW,2013-03-03 16:02:00,
2013-03-03 10:07:00,61.3,33.9,30.14,North,0,0.0,0.0,36,0.00,,,0.00,WUHU216HW,2013-03-03 16:07:00,
2013-03-03 10:12:00,61.3,33.2,30.14,North,0,0.0,0.0,35,0.00,,,0.00,WUHU216HW,2013-03-03 16:12:00,
2013-03-03 10:17:00,61.3,33.2,30.14,North,0,0.0,0.0,35,0.00,,,0.00,WUHU216HW,2013-03-03 16:17:00,
2013-03-03 10:22:00,61.7,34.2,30.13,North,0,0.0,0.0,36,0.00,,,0.00,WUHU216HW,2013-03-03 16:22:00,
2013-03-03 10:27:00,62.4,34.1,30.13,North,0,0.0,0.0,35,0.00,,,0.00,WUHU216HW,2013-03-03 16:27:00,
2013-03-03 10:32:00,63.5,34.4,30.13,North,0,0.0,0.0,34,0.00,,,0.00,WUHU216HW,2013-03-03 16:32:00,
2013-03-03 10:37:00,62.7,33.7,30.13,North,0,0.0,0.0,34,0.00,,,0.00,WUHU216HW,2013-03-03 16:37:00,
2013-03-03 10:42:00,62.4,34.1,30.13,North,0,0.0,0.0,35,0.00,,,0.00,WUHU216HW,2013-03-03 16:42:00,
2013-03-03 10:47:00,63.3,34.2,30.12,North,0,0.0,0.0,34,0.00,,,0.00,WUHU216HW,2013-03-03 16:47:00,
2013-03-03 10:52:00,64.0,34.9,30.12,North,0,0.0,0.0,34,0.00,,,0.00,WUHU216HW,2013-03-03 16:52:00,
2013-03-03 10:57:00,65.4,36.2,30.12,North,0,0.0,0.0,34,0.00,,,0.00,WUHU216HW,2013-03-03 16:57:00,
2013-03-03 11:02:00,66.7,37.3,30.12,North,0,0.0,0.0,34,0.00,,,0.00,WUHU216HW,2013-03-03 17:02:00,
2013-03-03 11:07:00,67.2,37.0,30.11,North,0,0.0,0.0,33,0.00,,,0.00,WUHU216HW,2013-03-03 17:07:00,
2013-03-03 11:12:00,67.1,36.1,30.11,North,0,0.0,0.0,32,0.00,,,0.00,WUHU216HW,2013-03-03 17:12:00,
2013-03-03 11:17:00,66.3,35.5,30.11,North,0,0.0,0.0,32,0.00,,,0.00,WUHU216HW,2013-03-03 17:17:00,
2013-03-03 11:22:00,67.6,35.8,30.11,North,0,0.0,0.0,31,0.00,,,0.00,WUHU216HW,2013-03-03 17:22:00,
2013-03-03 11:27:00,68.5,36.6,30.10,North,0,0.0,0.0,31,0.00,,,0.00,WUHU216HW,2013-03-03 17:27:00,
2013-03-03 11:32:00,69.4,35.7,30.10,North,0,0.0,0.0,29,0.00,,,0.00,WUHU216HW,2013-03-03 17:32:00,
2013-03-03 11:37:00,69.4,35.7,30.10,North,0,0.0,0.0,29,0.00,,,0.00,WUHU216HW,2013-03-03 17:37:00,
2013-03-03 11:42:00,70.1,36.3,30.10,North,0,0.0,0.0,29,0.00,,,0.00,WUHU216HW,2013-03-03 17:42:00,
2013-03-03 11:47:00,69.8,34.0,30.09,North,0,0.0,0.0,27,0.00,,,0.00,WUHU216HW,2013-03-03 17:47:00,
2013-03-03 11:52:00,69.9,35.1,30.09,North,0,0.0,0.0,28,0.00,,,0.00,WUHU216HW,2013-03-03 17:52:00,
2013-03-03 11:57:00,71.2,37.3,30.09,North,0,0.0,0.0,29,0.00,,,0.00,WUHU216HW,2013-03-03 17:57:00,
2013-03-03 12:02:00,72.1,35.0,30.08,North,0,0.0,0.0,26,0.00,,,0.00,WUHU216HW,2013-03-03 18:02:00,
2013-03-03 12:07:00,71.7,36.7,30.08,North,0,0.0,0.0,28,0.00,,,0.00,WUHU216HW,2013-03-03 18:07:00,
2013-03-03 12:12:00,71.7,36.7,30.07,North,0,0.0,0.0,28,0.00,,,0.00,WUHU216HW,2013-03-03 18:12:00,
2013-03-03 12:17:00,72.5,36.3,30.07,North,0,0.0,0.0,27,0.00,,,0.00,WUHU216HW,2013-03-03 18:17:00,
2013-03-03 12:22:00,72.3,35.1,30.06,North,0,0.0,0.0,26,0.00,,,0.00,WUHU216HW,2013-03-03 18:22:00,
2013-03-03 12:27:00,71.4,36.4,30.06,North,0,0.0,0.0,28,0.00,,,0.00,WUHU216HW,2013-03-03 18:27:00,
2013-03-03 12:32:00,71.6,33.5,30.06,North,0,0.0,0.0,25,0.00,,,0.00,WUHU216HW,2013-03-03 18:32:00,
2013-03-03 12:37:00,71.6,33.5,30.05,North,0,0.0,0.0,26,0.00,,,0.00,WUHU216HW,2013-03-03 18:37:00,
2013-03-03 12:42:00,73.0,34.7,30.05,North,0,0.0,0.0,25,0.00,,,0.00,WUHU216HW,2013-03-03 18:42:00,
2013-03-03 12:47:00,73.4,35.0,30.05,North,0,0.0,0.0,25,0.00,,,0.00,WUHU216HW,2013-03-03 18:47:00,
2013-03-03 12:52:00,73.0,33.7,30.05,North,0,0.0,0.0,25,0.00,,,0.00,WUHU216HW,2013-03-03 18:52:00,
2013-03-03 12:57:00,73.9,35.5,30.04,North,0,0.0,0.0,25,0.00,,,0.00,WUHU216HW,2013-03-03 18:57:00,
2013-03-03 13:02:00,74.4,35.9,30.04,North,0,0.0,0.0,25,0.00,,,0.00,WUHU216HW,2013-03-03 19:02:00,
2013-03-03 13:07:00,75.7,36.0,30.04,North,0,0.0,0.0,24,0.00,,,0.00,WUHU216HW,2013-03-03 19:07:00,
2013-03-03 13:12:00,75.3,34.6,30.04,North,0,0.0,0.0,23,0.00,,,0.00,WUHU216HW,2013-03-03 19:12:00,
2013-03-03 13:17:00,73.5,34.2,30.04,North,0,0.0,0.0,24,0.00,,,0.00,WUHU216HW,2013-03-03 19:17:00,
2013-03-03 13:22:00,74.1,34.6,30.03,North,0,0.0,0.0,24,0.00,,,0.00,WUHU216HW,2013-03-03 19:22:00,
2013-03-03 13:27:00,74.4,35.9,30.03,North,0,0.0,0.0,25,0.00,,,0.00,WUHU216HW,2013-03-03 19:27:00,
2013-03-03 13:32:00,75.9,35.1,30.02,North,0,0.0,0.0,23,0.00,,,0.00,WUHU216HW,2013-03-03 19:32:00,
2013-03-03 13:37:00,75.7,34.9,30.02,North,0,0.0,0.0,23,0.00,,,0.00,WUHU216HW,2013-03-03 19:37:00,
2013-03-03 13:42:00,74.6,35.1,30.02,North,0,0.0,0.0,24,0.00,,,0.00,WUHU216HW,2013-03-03 19:42:00,
2013-03-03 13:47:00,74.8,35.2,30.02,North,0,0.0,0.0,24,0.00,,,0.00,WUHU216HW,2013-03-03 19:47:00,
2013-03-03 13:52:00,75.3,34.6,30.01,North,0,0.0,0.0,22,0.00,,,0.00,WUHU216HW,2013-03-03 19:52:00,
2013-03-03 13:57:00,74.1,34.6,30.00,North,0,0.0,0.0,24,0.00,,,0.00,WUHU216HW,2013-03-03 19:57:00,
2013-03-03 14:02:00,74.1,34.6,30.01,North,0,0.0,0.0,24,0.00,,,0.00,WUHU216HW,2013-03-03 20:02:00,
2013-03-03 14:07:00,74.4,34.9,30.01,North,0,0.0,0.0,24,0.00,,,0.00,WUHU216HW,2013-03-03 20:07:00,
2013-03-03 14:14:00,75.3,35.7,30.00,North,0,0.0,0.0,24,0.00,,,0.00,WUHU216HW,2013-03-03 20:14:00,
2013-03-03 14:19:00,75.3,35.7,30.00,North,0,0.0,0.0,24,0.00,,,0.00,WUHU216HW,2013-03-03 20:19:00,
2013-03-03 14:34:00,75.0,35.4,29.99,North,0,0.0,0.0,24,0.00,,,0.00,WUHU216HW,2013-03-03 20:34:00,
2013-03-03 14:39:00,76.1,35.2,29.99,North,0,0.0,0.0,23,0.00,,,0.00,WUHU216HW,2013-03-03 20:39:00,
2013-03-03 14:44:00,76.6,35.7,29.99,North,0,0.0,0.0,23,0.00,,,0.00,WUHU216HW,2013-03-03 20:44:00,
2013-03-03 14:49:00,77.5,36.4,29.99,North,0,0.0,0.0,23,0.00,,,0.00,WUHU216HW,2013-03-03 20:49:00,
2013-03-03 14:54:00,76.2,35.4,29.98,North,0,0.0,0.0,23,0.00,,,0.00,WUHU216HW,2013-03-03 20:54:00,
2013-03-03 14:59:00,76.2,35.4,29.98,North,0,0.0,0.0,23,0.00,,,0.00,WUHU216HW,2013-03-03 20:59:00,
2013-03-03 15:04:00,76.2,35.4,29.98,North,0,0.0,0.0,23,0.00,,,0.00,WUHU216HW,2013-03-03 21:04:00,
2013-03-03 15:09:00,76.6,36.7,29.97,North,0,0.0,0.0,24,0.00,,,0.00,WUHU216HW,2013-03-03 21:09:00,
2013-03-03 15:14:00,76.6,35.7,29.97,North,0,0.0,0.0,23,0.00,,,0.00,WUHU216HW,2013-03-03 21:14:00,
2013-03-03 15:19:00,75.5,35.8,29.97,North,0,0.0,0.0,24,0.00,,,0.00,WUHU216HW,2013-03-03 21:19:00,
2013-03-03 15:24:00,75.3,36.7,29.97,North,0,0.0,0.0,25,0.00,,,0.00,WUHU216HW,2013-03-03 21:24:00,
2013-03-03 15:29:00,75.0,35.4,29.97,North,0,0.0,0.0,24,0.00,,,0.00,WUHU216HW,2013-03-03 21:29:00,
2013-03-03 15:34:00,74.8,36.2,29.96,North,0,0.0,0.0,25,0.00,,,0.00,WUHU216HW,2013-03-03 21:34:00,
2013-03-03 15:40:00,74.6,36.1,29.96,North,0,0.0,0.0,25,0.00,,,0.00,WUHU216HW,2013-03-03 21:40:00,
2013-03-03 15:45:00,74.8,36.2,29.95,North,0,0.0,0.0,25,0.00,,,0.00,WUHU216HW,2013-03-03 21:45:00,
2013-03-03 15:50:00,75.0,36.4,29.95,North,0,0.0,0.0,25,0.00,,,0.00,WUHU216HW,2013-03-03 21:50:00,
2013-03-03 15:55:00,75.3,36.7,29.95,North,0,0.0,0.0,24,0.00,,,0.00,WUHU216HW,2013-03-03 21:55:00,
2013-03-03 16:00:00,74.8,36.2,29.95,North,0,0.0,0.0,25,0.00,,,0.00,WUHU216HW,2013-03-03 22:00:00,
2013-03-03 16:05:00,74.8,36.2,29.95,North,0,0.0,0.0,25,0.00,,,0.00,WUHU216HW,2013-03-03 22:05:00,
2013-03-03 16:10:00,74.1,35.6,29.95,North,0,0.0,0.0,25,0.00,,,0.00,WUHU216HW,2013-03-03 22:10:00,
2013-03-03 16:15:00,74.4,35.9,29.94,North,0,0.0,0.0,25,0.00,,,0.00,WUHU216HW,2013-03-03 22:15:00,
2013-03-03 16:20:00,73.9,35.5,29.94,North,0,0.0,0.0,25,0.00,,,0.00,WUHU216HW,2013-03-03 22:20:00,
2013-03-03 16:25:00,73.9,35.5,29.93,North,0,0.0,0.0,25,0.00,,,0.00,WUHU216HW,2013-03-03 22:25:00,
2013-03-03 16:30:00,73.5,35.2,29.93,North,0,0.0,0.0,25,0.00,,,0.00,WUHU216HW,2013-03-03 22:30:00,
2013-03-03 16:35:00,73.7,35.3,29.93,North,0,0.0,0.0,25,0.00,,,0.00,WUHU216HW,2013-03-03 22:35:00,
2013-03-03 16:40:00,73.7,35.3,29.93,North,0,0.0,0.0,25,0.00,,,0.00,WUHU216HW,2013-03-03 22:40:00,
2013-03-03 16:45:00,73.7,35.3,29.93,North,0,0.0,0.0,25,0.00,,,0.00,WUHU216HW,2013-03-03 22:45:00,
2013-03-03 16:50:00,73.0,34.7,29.92,North,0,0.0,0.0,26,0.00,,,0.00,WUHU216HW,2013-03-03 22:50:00,
2013-03-03 16:55:00,73.0,34.7,29.93,North,0,0.0,0.0,26,0.00,,,0.00,WUHU216HW,2013-03-03 22:55:00,
2013-03-03 17:00:00,72.5,35.3,29.92,North,0,0.0,0.0,26,0.00,,,0.00,WUHU216HW,2013-03-03 23:00:00,
2013-03-03 17:05:00,72.5,35.3,29.92,North,0,0.0,0.0,26,0.00,,,0.00,WUHU216HW,2013-03-03 23:05:00,
2013-03-03 17:10:00,72.5,35.3,29.92,North,0,0.0,0.0,26,0.00,,,0.00,WUHU216HW,2013-03-03 23:10:00,
2013-03-03 17:15:00,71.9,34.8,29.92,North,0,0.0,0.0,26,0.00,,,0.00,WUHU216HW,2013-03-03 23:15:00,
2013-03-03 17:20:00,71.6,35.5,29.92,North,0,0.0,0.0,27,0.00,,,0.00,WUHU216HW,2013-03-03 23:20:00,
2013-03-03 17:25:00,71.6,35.5,29.92,North,0,0.0,0.0,27,0.00,,,0.00,WUHU216HW,2013-03-03 23:25:00,
2013-03-03 17:30:00,71.2,35.2,29.92,North,0,0.0,0.0,27,0.00,,,0.00,WUHU216HW,2013-03-03 23:30:00,
2013-03-03 17:35:00,71.2,35.2,29.92,North,0,0.0,0.0,27,0.00,,,0.00,WUHU216HW,2013-03-03 23:35:00,
2013-03-03 17:40:00,70.8,34.9,29.91,North,0,0.0,0.0,27,0.00,,,0.00,WUHU216HW,2013-03-03 23:40:00,
2013-03-03 17:45:00,70.5,34.6,29.91,North,0,0.0,0.0,27,0.00,,,0.00,WUHU216HW,2013-03-03 23:45:00,
2013-03-03 17:51:00,70.3,34.4,29.91,North,0,0.0,0.0,27,0.00,,,0.00,WUHU216HW,2013-03-03 23:51:00,
2013-03-03 17:57:00,69.9,34.1,29.91,North,0,0.0,0.0,27,0.00,,,0.00,WUHU216HW,2013-03-03 23:57:00,
2013-03-03 18:02:00,69.6,33.8,29.91,North,0,0.0,0.0,27,0.00,,,0.00,WUHU216HW,2013-03-04 00:02:00,
2013-03-03 18:07:00,69.2,33.5,29.91,North,0,0.0,0.0,27,0.00,,,0.00,WUHU216HW,2013-03-04 00:07:00,
2013-03-03 18:12:00,69.0,33.3,29.91,North,0,0.0,0.0,27,0.00,,,0.00,WUHU216HW,2013-03-04 00:12:00,
2013-03-03 18:17:00,68.7,34.0,29.91,North,0,0.0,0.0,28,0.00,,,0.00,WUHU216HW,2013-03-04 00:17:00,
2013-03-03 18:22:00,68.7,34.0,29.91,North,0,0.0,0.0,29,0.00,,,0.00,WUHU216HW,2013-03-04 00:22:00,
2013-03-03 18:27:00,68.0,33.4,29.91,North,0,0.0,0.0,28,0.00,,,0.00,WUHU216HW,2013-03-04 00:27:00,
2013-03-03 18:32:00,67.8,33.2,29.90,North,0,0.0,0.0,28,0.00,,,0.00,WUHU216HW,2013-03-04 00:32:00,
2013-03-03 18:37:00,67.6,33.1,29.90,North,0,0.0,0.0,28,0.00,,,0.00,WUHU216HW,2013-03-04 00:37:00,
2013-03-03 18:42:00,67.2,33.8,29.90,North,0,0.0,0.0,29,0.00,,,0.00,WUHU216HW,2013-03-04 00:42:00,
2013-03-03 18:47:00,66.7,34.4,29.90,North,0,0.0,0.0,30,0.00,,,0.00,WUHU216HW,2013-03-04 00:47:00,
2013-03-03 18:52:00,66.7,34.4,29.90,North,0,0.0,0.0,30,0.00,,,0.00,WUHU216HW,2013-03-04 00:52:00,
2013-03-03 18:57:00,66.2,33.9,29.90,North,0,0.0,0.0,30,0.00,,,0.00,WUHU216HW,2013-03-04 00:57:00,
2013-03-03 19:02:00,65.8,34.3,29.90,North,0,0.0,0.0,31,0.00,,,0.00,WUHU216HW,2013-03-04 01:02:00,
2013-03-03 19:07:00,65.3,33.8,29.90,North,0,0.0,0.0,31,0.00,,,0.00,WUHU216HW,2013-03-04 01:07:00,
2013-03-03 19:13:00,65.1,33.7,29.90,North,0,0.0,0.0,31,0.00,,,0.00,WUHU216HW,2013-03-04 01:13:00,
2013-03-03 19:18:00,65.1,33.7,29.90,North,0,0.0,0.0,32,0.00,,,0.00,WUHU216HW,2013-03-04 01:18:00,
2013-03-03 19:23:00,64.9,34.2,29.90,North,0,0.0,0.0,32,0.00,,,0.00,WUHU216HW,2013-03-04 01:23:00,
2013-03-03 19:28:00,64.7,34.1,29.90,North,0,0.0,0.0,32,0.00,,,0.00,WUHU216HW,2013-03-04 01:28:00,
2013-03-03 19:33:00,64.5,33.9,29.89,North,0,0.0,0.0,32,0.00,,,0.00,WUHU216HW,2013-03-04 01:33:00,
2013-03-03 19:38:00,64.5,33.9,29.89,North,0,0.0,0.0,32,0.00,,,0.00,WUHU216HW,2013-03-04 01:38:00,
2013-03-03 19:43:00,64.4,33.8,29.89,North,0,0.0,0.0,32,0.00,,,0.00,WUHU216HW,2013-03-04 01:43:00,
2013-03-03 19:48:00,64.4,33.8,29.89,North,0,0.0,0.0,32,0.00,,,0.00,WUHU216HW,2013-03-04 01:48:00,
2013-03-03 19:53:00,64.2,33.6,29.89,North,0,0.0,0.0,33,0.00,,,0.00,WUHU216HW,2013-03-04 01:53:00,
2013-03-03 19:58:00,64.2,33.6,29.90,North,0,0.0,0.0,32,0.00,,,0.00,WUHU216HW,2013-03-04 01:58:00,
2013-03-03 20:03:00,64.0,34.1,29.89,North,0,0.0,0.0,33,0.00,,,0.00,WUHU216HW,2013-03-04 02:03:00,
2013-03-03 20:08:00,64.0,34.1,29.89,North,0,0.0,0.0,33,0.00,,,0.00,WUHU216HW,2013-03-04 02:08:00,
2013-03-03 20:13:00,64.0,34.1,29.89,North,0,0.0,0.0,32,0.00,,,0.00,WUHU216HW,2013-03-04 02:13:00,
2013-03-03 20:18:00,63.8,34.0,29.89,North,0,0.0,0.0,33,0.00,,,0.00,WUHU216HW,2013-03-04 02:18:00,
2013-03-03 20:23:00,63.8,34.0,29.89,North,0,0.0,0.0,33,0.00,,,0.00,WUHU216HW,2013-03-04 02:23:00,
2013-03-03 20:28:00,63.6,33.8,29.90,North,0,0.0,0.0,33,0.00,,,0.00,WUHU216HW,2013-03-04 02:28:00,
2013-03-03 20:33:00,63.6,36.0,29.90,North,0,0.0,0.0,36,0.00,,,0.00,WUHU216HW,2013-03-04 02:33:00,
2013-03-03 20:38:00,63.3,36.4,29.90,North,0,0.0,0.0,37,0.00,,,0.00,WUHU216HW,2013-03-04 02:38:00,
2013-03-03 20:43:00,62.9,37.5,29.90,North,0,0.0,0.0,39,0.00,,,0.00,WUHU216HW,2013-03-04 02:43:00,
2013-03-03 20:48:00,62.7,39.2,29.90,North,0,0.0,0.0,43,0.00,,,0.00,WUHU216HW,2013-03-04 02:48:00,
2013-03-03 20:53:00,62.4,40.0,29.90,North,0,0.0,0.0,44,0.00,,,0.00,WUHU216HW,2013-03-04 02:53:00,
2013-03-03 20:58:00,62.4,40.0,29.90,North,0,0.0,0.0,45,0.00,,,0.00,WUHU216HW,2013-03-04 02:58:00,
2013-03-03 21:03:00,62.2,40.4,29.90,North,0,0.0,0.0,46,0.00,,,0.00,WUHU216HW,2013-03-04 03:03:00,
2013-03-03 21:08:00,61.7,41.1,29.90,North,0,0.0,0.0,47,0.00,,,0.00,WUHU216HW,2013-03-04 03:08:00,
2013-03-03 21:13:00,61.5,41.5,29.90,North,0,0.0,0.0,48,0.00,,,0.00,WUHU216HW,2013-03-04 03:13:00,
2013-03-03 21:18:00,61.5,41.5,29.90,North,0,0.0,0.0,48,0.00,,,0.00,WUHU216HW,2013-03-04 03:18:00,
2013-03-03 21:23:00,61.5,41.5,29.90,North,0,0.0,0.0,48,0.00,,,0.00,WUHU216HW,2013-03-04 03:23:00,
2013-03-03 21:33:00,60.9,41.6,29.89,North,0,0.0,0.0,49,0.00,,,0.00,WUHU216HW,2013-03-04 03:33:00,
2013-03-03 21:57:00,59.5,40.9,29.90,North,0,0.0,0.0,50,0.00,,,0.00,WUHU216HW,2013-03-04 03:57:00,
2013-03-03 22:02:00,59.5,40.9,29.90,North,0,0.0,0.0,50,0.00,,,0.00,WUHU216HW,2013-03-04 04:02:00,
2013-03-03 22:16:00,59.0,40.9,29.89,North,0,0.0,0.0,51,0.00,,,0.00,WUHU216HW,2013-03-04 04:16:00,
2013-03-03 22:21:00,58.6,40.6,29.89,North,0,0.0,0.0,51,0.00,,,0.00,WUHU216HW,2013-03-04 04:21:00,
2013-03-03 22:26:00,58.6,40.6,29.88,North,0,0.0,0.0,52,0.00,,,0.00,WUHU216HW,2013-03-04 04:26:00,
2013-03-03 22:31:00,58.6,40.6,29.88,North,0,0.0,0.0,52,0.00,,,0.00,WUHU216HW,2013-03-04 04:31:00,
2013-03-03 22:36:00,58.2,40.7,29.88,North,0,0.0,0.0,52,0.00,,,0.00,WUHU216HW,2013-03-04 04:36:00,
2013-03-03 22:41:00,58.1,41.0,29.88,North,0,0.0,0.0,53,0.00,,,0.00,WUHU216HW,2013-03-04 04:41:00,
2013-03-03 22:46:00,58.1,41.0,29.88,North,0,0.0,0.0,53,0.00,,,0.00,WUHU216HW,2013-03-04 04:46:00,
2013-03-03 22:51:00,58.1,41.0,29.88,North,0,0.0,0.0,53,0.00,,,0.00,WUHU216HW,2013-03-04 04:51:00,
2013-03-03 22:56:00,57.9,40.8,29.88,North,0,0.0,0.0,53,0.00,,,0.00,WUHU216HW,2013-03-04 04:56:00,
2013-03-03 23:01:00,57.7,40.7,29.88,North,0,0.0,0.0,53,0.00,,,0.00,WUHU216HW,2013-03-04 05:01:00,
2013-03-03 23:06:00,57.3,40.8,29.87,North,0,0.0,0.0,54,0.00,,,0.00,WUHU216HW,2013-03-04 05:06:00,
2013-03-03 23:11:00,57.2,40.7,29.87,North,0,0.0,0.0,54,0.00,,,0.00,WUHU216HW,2013-03-04 05:11:00,
2013-03-03 23:16:00,56.8,40.8,29.87,North,0,0.0,0.0,55,0.00,,,0.00,WUHU216HW,2013-03-04 05:16:00,
2013-03-03 23:21:00,56.8,40.8,29.87,North,0,0.0,0.0,55,0.00,,,0.00,WUHU216HW,2013-03-04 05:21:00,
2013-03-03 23:26:00,56.8,40.8,29.87,North,0,0.0,0.0,55,0.00,,,0.00,WUHU216HW,2013-03-04 05:26:00,
2013-03-03 23:31:00,56.4,40.4,29.87,North,0,0.0,0.0,55,0.00,,,0.00,WUHU216HW,2013-03-04 05:31:00,
2013-03-03 23:36:00,56.3,40.7,29.87,North,0,0.0,0.0,56,0.00,,,0.00,WUHU216HW,2013-03-04 05:36:00,
2013-03-03 23:41:00,56.3,40.7,29.87,North,0,0.0,0.0,56,0.00,,,0.00,WUHU216HW,2013-03-04 05:41:00,
2013-03-03 23:46:00,56.1,40.5,29.86,North,0,0.0,0.0,56,0.00,,,0.00,WUHU216HW,2013-03-04 05:46:00,
2013-03-03 23:51:00,56.1,40.5,29.86,North,0,0.0,0.0,56,0.00,,,0.00,WUHU216HW,2013-03-04 05:51:00,
2013-03-03 23:56:00,56.3,40.7,29.86,North,0,0.0,0.0,56,0.00,,,0.00,WUHU216HW,2013-03-04 05:56:00,